Weather History for Marshall, MI

Change the Weather History Date:

Thursday, April 18, 2013

  Actual Average (KBTL) Record (KBTL)
Temperature  
Mean Temperature 59 °F 49 °F  
Max Temperature 73 °F 61 °F 84 °F (2002)
Min Temperature 45 °F 37 °F 23 °F (1997)
Degree Days  
Heating Degree Days 6 16  
Month to date heating degree days 347  
Since 1 July heating degree days 6222  
Cooling Degree Days 0 0  
Month to date cooling degree days 0  
Year to date cooling degree days 0  
Growing Degree Days 9 (Base 50)    
Moisture  
Dew Point 55 °F    
Average Humidity 88    
Maximum Humidity 93    
Minimum Humidity 72    
Precipitation  
Precipitation 0.00 in 0.11 in 0.82 in (2013)
Month to date precipitation 1.66  
Year to date precipitation 6.57  
Sea Level Pressure  
Sea Level Pressure 29.68 in    
Wind  
Wind Speed 12 mph (SSE)    
Max Wind Speed 25 mph    
Max Gust Speed 37 mph    
Visibility 9 miles    
Events Rain    
T = Trace of Precipitation, MM = Missing Value Source: NWS Daily Summary

Daily Weather History Graph

Daily Weather History Graph

Search for Another Location

Airport:

Trip Planner

Search our weather history database for the weather conditions in past years. The results will help you decide how hot, cold, wet, or windy it might be!

Date:

Astronomy

Apr. 18, 2013 Rise Set
Actual Time 6:53 AM EDT 8:24 PM EDT
Civil Twilight 6:24 AM EDT 8:54 PM EDT
Nautical Twilight 5:49 AM EDT 9:30 PM EDT
Astronomical Twilight 5:11 AM EDT 10:07 PM EDT
Moon 1:03 PM EDT (4/18) 2:40 AM EDT (4/18)
Length of Visible Light 14h 29m
Length of Day
13h 31m
First Quarter, 51% of the Moon is Illuminated
Apr 18
First Quarter
Apr 25
Full
May 2
Last Quarter
May 9
New
May 18
First Quarter

Hourly Weather History & Observations

Time (EDT) Temp. Windchill Dew Point Humidity Pressure Visibility Wind Dir Wind Speed Gust Speed Precip Events Conditions
12:14 AM 46.2 °F 40.1 °F 44.1 °F 92% 29.94 in 7.0 mi ESE 13.8 mph 18.4 mph N/A Rain Light Rain
12:33 AM 46.0 °F 40.2 °F 43.9 °F 92% 29.93 in 10.0 mi ESE 12.7 mph 18.4 mph N/A Rain Light Rain
12:54 AM 46.0 °F 39.6 °F 43.5 °F 91% 29.92 in 5.0 mi ESE 15.0 mph 19.6 mph N/A Rain Rain
1:13 AM 45.7 °F 39.5 °F 43.2 °F 91% 29.91 in 2.5 mi ESE 13.8 mph 18.4 mph N/A Rain Light Rain
1:33 AM 46.0 °F 40.6 °F 43.5 °F 91% 29.91 in 10.0 mi ESE 11.5 mph 17.3 mph N/A Rain Rain
1:53 AM 46.0 °F 39.9 °F 43.5 °F 91% 29.88 in 10.0 mi ESE 13.8 mph 18.4 mph N/A   Overcast
2:13 AM 46.0 °F 41.0 °F 43.5 °F 91% 29.87 in 10.0 mi ESE 10.4 mph 17.3 mph N/A   Overcast
2:34 AM 46.2 °F 42.2 °F 43.3 °F 90% 29.86 in 10.0 mi East 8.1 mph - N/A   Overcast
2:53 AM 46.6 °F - 44.1 °F 91% 29.83 in 10.0 mi East 9.2 mph - N/A   Overcast
3:13 AM 46.9 °F - 44.4 °F 91% 29.81 in 10.0 mi ESE 11.5 mph - N/A   Overcast
3:34 AM 47.8 °F - 45.3 °F 91% 29.80 in 7.0 mi ESE 10.4 mph - N/A   Mostly Cloudy
3:53 AM 49.5 °F - 46.8 °F 90% 29.79 in 7.0 mi SE 9.2 mph 17.3 mph N/A   Mostly Cloudy
4:13 AM 50.2 °F - 47.3 °F 90% 29.77 in 7.0 mi ESE 11.5 mph 16.1 mph N/A   Mostly Cloudy
4:34 AM 50.9 °F - 48.0 °F 90% 29.76 in 7.0 mi SE 10.4 mph - N/A   Mostly Cloudy
4:53 AM 51.8 °F - 49.1 °F 90% 29.76 in 7.0 mi SE 5.8 mph - N/A   Mostly Cloudy
5:13 AM 53.4 °F - 50.5 °F 90% 29.75 in 10.0 mi SSE 8.1 mph - N/A   Mostly Cloudy
5:34 AM 54.3 °F - 51.3 °F 89% 29.74 in 10.0 mi SSE 8.1 mph 16.1 mph N/A   Mostly Cloudy
5:53 AM 54.5 °F - 51.6 °F 90% 29.76 in 10.0 mi Calm Calm - N/A   Overcast
6:14 AM 53.2 °F - 50.7 °F 91% 29.76 in 7.0 mi WNW 3.5 mph - N/A   Overcast
6:33 AM 53.2 °F - 50.7 °F 91% 29.74 in 7.0 mi Calm Calm - N/A   Overcast
6:53 AM 53.1 °F - 50.9 °F 92% 29.72 in 7.0 mi Calm Calm - N/A   Overcast
7:14 AM 53.4 °F - 51.3 °F 92% 29.71 in 7.0 mi ESE 6.9 mph - N/A   Mostly Cloudy
7:33 AM 54.7 °F - 52.2 °F 91% 29.70 in 7.0 mi SE 6.9 mph - N/A   Scattered Clouds
7:53 AM 55.6 °F - 52.7 °F 90% 29.69 in 7.0 mi SSE 8.1 mph - N/A   Clear
8:14 AM 56.5 °F - 53.4 °F 89% 29.69 in 7.0 mi SSE 10.4 mph 17.3 mph N/A   Clear
8:33 AM 57.7 °F - 54.9 °F 90% 29.68 in 10.0 mi South 11.5 mph 18.4 mph N/A   Clear
8:54 AM 60.8 °F - 56.8 °F 87% 29.67 in 10.0 mi South 13.8 mph 19.6 mph N/A   Clear
9:14 AM 62.4 °F - 58.3 °F 86% 29.66 in 10.0 mi South 16.1 mph 23.0 mph N/A   Scattered Clouds
9:33 AM 64.4 °F - 59.7 °F 85% 29.64 in 10.0 mi South 17.3 mph 21.9 mph N/A   Scattered Clouds
9:54 AM 65.7 °F - 60.4 °F 83% 29.63 in 10.0 mi South 15.0 mph 21.9 mph N/A   Scattered Clouds
10:14 AM 67.1 °F - 61.3 °F 82% 29.63 in 10.0 mi South 17.3 mph 25.3 mph N/A   Mostly Cloudy
10:33 AM 67.6 °F - 61.5 °F 81% 29.63 in 10.0 mi South 15.0 mph 25.3 mph N/A   Mostly Cloudy
10:54 AM 68.5 °F - 62.1 °F 80% 29.62 in 10.0 mi South 10.4 mph 27.6 mph N/A   Mostly Cloudy
11:14 AM 69.4 °F - 62.4 °F 78% 29.61 in 10.0 mi South 16.1 mph 24.2 mph N/A   Mostly Cloudy
11:33 AM 70.3 °F - 62.8 °F 77% 29.59 in 10.0 mi South 19.6 mph 25.3 mph N/A   Mostly Cloudy
11:54 AM 73.0 °F - 63.7 °F 72% 29.58 in 10.0 mi South 19.6 mph 34.5 mph N/A   Mostly Cloudy
12:14 PM 72.5 °F - 63.1 °F 72% 29.57 in 10.0 mi South 16.1 mph 27.6 mph N/A   Mostly Cloudy
12:33 PM 68.5 °F - 63.9 °F 85% 29.59 in 2.5 mi SSW 25.3 mph 36.8 mph N/A Rain Rain
12:54 PM 67.6 °F - 60.4 °F 78% 29.59 in 10.0 mi SW 17.3 mph 26.5 mph N/A   Scattered Clouds
1:13 PM 68.2 °F - 61.3 °F 79% 29.60 in 10.0 mi SW 23.0 mph 32.2 mph N/A   Light Drizzle
1:33 PM 66.9 °F - 61.3 °F 82% 29.60 in 10.0 mi SSW 15.0 mph 25.3 mph N/A Rain Light Rain
1:54 PM 65.3 °F - 61.3 °F 87% 29.62 in 10.0 mi SW 19.6 mph 25.3 mph N/A Rain Light Rain
2:13 PM 64.9 °F - 61.3 °F 88% 29.62 in 10.0 mi SSW 15.0 mph 21.9 mph N/A   Light Drizzle
2:34 PM 65.1 °F - 61.3 °F 88% 29.61 in 10.0 mi SW 15.0 mph 24.2 mph N/A   Overcast
2:54 PM 65.3 °F - 61.3 °F 87% 29.62 in 10.0 mi SSW 11.5 mph 18.4 mph N/A Rain Light Rain
3:13 PM 63.7 °F - 60.1 °F 88% 29.64 in 10.0 mi SSW 15.0 mph 26.5 mph N/A Rain Light Rain
3:34 PM 62.6 °F - 59.5 °F 90% 29.65 in 7.0 mi SSW 13.8 mph 19.6 mph N/A Rain Rain
3:53 PM 62.1 °F - 59.4 °F 91% 29.66 in 10.0 mi SSW 11.5 mph 18.4 mph N/A Rain Light Rain
4:34 PM 61.7 °F - 59.2 °F 91% 29.64 in 10.0 mi SW 12.7 mph - N/A Rain Light Rain
4:54 PM 61.7 °F - 59.2 °F 91% 29.61 in 10.0 mi SSW 9.2 mph - N/A Rain Light Rain
5:13 PM 61.7 °F - 59.0 °F 91% 29.62 in 10.0 mi SSW 12.7 mph - N/A Rain Light Rain
5:34 PM 61.5 °F - 58.8 °F 91% 29.61 in 10.0 mi South 10.4 mph - N/A Rain Light Rain
5:54 PM 61.5 °F - 58.6 °F 90% 29.62 in 10.0 mi South 11.5 mph - N/A   Mostly Cloudy
6:13 PM 61.7 °F - 58.6 °F 90% 29.62 in 10.0 mi SSW 13.8 mph 18.4 mph N/A   Overcast
6:34 PM 61.5 °F - 58.3 °F 89% 29.63 in 10.0 mi SSW 15.0 mph 20.7 mph N/A   Overcast
6:53 PM 61.5 °F - 58.3 °F 89% 29.63 in 10.0 mi SSW 10.4 mph 17.3 mph N/A Rain Light Rain
7:13 PM 61.0 °F - 57.7 °F 89% 29.62 in 10.0 mi SSW 12.7 mph 17.3 mph N/A Rain Light Rain
7:33 PM 60.6 °F - 57.6 °F 90% 29.63 in 10.0 mi South 10.4 mph 16.1 mph N/A Rain Light Rain
7:54 PM 59.9 °F - 57.4 °F 91% 29.63 in 10.0 mi South 6.9 mph 17.3 mph N/A Rain Light Rain
8:14 PM 59.5 °F - 57.0 °F 91% 29.64 in 10.0 mi South 8.1 mph - N/A Rain Light Rain
8:33 PM 59.4 °F - 57.0 °F 92% 29.63 in 10.0 mi South 9.2 mph - N/A Rain Light Rain
8:54 PM 59.2 °F - 56.8 °F 92% 29.61 in 10.0 mi SSE 4.6 mph - N/A Rain Light Rain
9:13 PM 58.8 °F - 56.7 °F 93% 29.60 in 10.0 mi SE 8.1 mph - N/A Rain Light Rain
9:33 PM 58.8 °F - 56.7 °F 93% 29.57 in 10.0 mi SE 15.0 mph 19.6 mph N/A Rain Light Rain
9:54 PM 58.8 °F - 56.7 °F 93% 29.57 in 10.0 mi SSE 15.0 mph 21.9 mph N/A Rain Light Rain
10:13 PM 58.8 °F - 56.5 °F 92% 29.60 in 10.0 mi South 12.7 mph 18.4 mph N/A Rain Rain
10:33 PM 58.5 °F - 56.1 °F 92% 29.60 in 10.0 mi SSE 12.7 mph 16.1 mph N/A Rain Rain
10:53 PM 58.5 °F - 56.1 °F 92% 29.58 in 10.0 mi SSE 12.7 mph - N/A Rain Rain
11:34 PM 57.9 °F - 55.9 °F 93% 29.54 in 10.0 mi SE 10.4 mph - N/A Rain Rain
11:53 PM 57.7 °F - 55.8 °F 93% 29.53 in 10.0 mi SE 12.7 mph 17.3 mph N/A Rain Light Rain